Погода в Макеевке

Украина / Черниговская область     50°40′12″N   31°50′04″E
темп.,
°C
ветер,
м/с
пор.,
м/с
влажн.,
%
обл.,
%
осадки,
мм/ч
давл.,
гПа
погр.,
м
21 января, пт
пт2123:00−1юз61195100 0.8 1005413
02:00−1зюз6128822 0.8 1004580
05:00−3зюз61287100 0.0 1003548
08:00−5юз61494100 0.1 1004622
11:00−3зюз81494100 0.5 10031082
14:00−3зюз91592100 1.0 10021063
17:00−3зюз91693100 0.4 1002927
20:00−2зюз81593100 0.9 1003863
22 января, сб
сб2223:00−3зюз81490100 0.2 1004690
02:00−3зюз6129596 0.7 1004610
05:00−3з61192100 0.2 1005623
08:00−4зюз51093100 0.2 1006510
11:00−3зюз599399 0.1 1008587
14:00−3зюз5894100 0.4 1008590
17:00−3зюз369799 0.6 1010317
20:00−8зсз359560 1.1 101386
23 января, вс
вс2323:00−6сз369669 0.1 1014197
02:00−7сз359667 0.1 1016243
05:00−8ссз249769 0.1 1017120
08:00−9ссв249771 0.1 1020152
11:00−8ссв359273 0.0 1023232
14:00−8ссв459184 0.0 1024278
17:00−9ссв379771 0.0 1027150
20:00−10ссв379769 0.1 1029131
24 января, пн
пн2423:00−11ссв389641 0.0 1031149
02:00−11с41095100 0.0 1031189
05:00−11с61394100 0.0 1031281
08:00−10с6159282 0.0 1031362
11:00−8ссв61491100 0.0 1031438
14:00−6ссв51092100 0.3 1030440
17:00−7с5109585 0.1 1031287
20:00−9с389779 0.1 1032178
25 января, вт
вт2523:00−11с489768 0.0 1030148
02:00−12с369655 0.0 103099
05:00−13ссз369672 0.0 1029104
08:00−13ссз369623 0.0 1029103
11:00−10с249257 0.0 1028169
14:00−8сз239036 0.0 1025203
17:00−11зюз229630 0.0 102411
20:00−13ююз229619 0.0 102318